#timestamp,LO_Frequency,Hit,StdDev 
1588856415.5,286047001.4,N
1588856435.3,286047004.3,N
1588856455.2,286047004.3,N
1588856475.0,286047005.9,Y
1588856475.9,286047005.9,P
1588856495.8,286047001.5,N
1588856515.6,286047002.1,N
1588856535.4,286046999.9,N
1588856555.3,286046999.8,N
1588856575.1,286047000.7,N
1588856595.8,286046999.3,N
1588856615.7,286046997.7,N
1588856635.5,286046997.0,N
1588856655.4,286046999.6,N
1588856675.2,286046999.5,N
1588856695.0,286046997.7,N
1588856695.9,286046997.7,N
1588856715.8,286046997.6,N
1588856735.6,286046995.4,N
1588856755.5,286046996.4,N
1588856775.3,286046994.6,N
1588856795.1,286046992.4,N
1588856815.9,286046996.3,N
1588856835.7,286046991.8,N
1588856855.5,286046991.7,N
1588856875.4,286046994.8,N
1588856895.2,286046993.9,N
1588856915.1,286046992.9,N
1588856916.0,286046992.9,N
1588856935.8,286046991.7,N
1588856955.6,286046994.6,N
1588856975.5,286046994.2,N
1588856995.3,286046994.5,N
1588857015.1,286046995.0,N
1588857035.9,286046995.1,N
1588857055.7,286046993.8,N
1588857075.6,286046992.2,N
1588857095.4,286046990.2,Y
1588857115.2,286046995.1,P
1588857135.1,286046996.2,P
1588857136.0,286046996.2,P
1588857155.8,286046996.4,Y
1588857175.7,286046999.6,P
1588857195.5,286046999.6,N
1588857215.3,286046999.3,N
1588857235.2,286046999.5,N
1588857255.0,286046996.7,N
1588857255.9,286046996.7,N
1588857275.8,286046999.6,N
1588857295.6,286046996.5,N
1588857315.4,286046998.7,N
1588857335.3,286046998.6,N
1588857355.1,286046997.0,N
1588857375.9,286046995.5,Y
1588857395.7,286046997.6,P
1588857415.5,286046997.8,P
1588857435.4,286046997.7,P
1588857455.2,286046997.7,Y
1588857475.0,286046998.6,P
1588857476.0,286046998.6,P
1588857495.8,286046998.6,P
1588857515.6,286046999.7,N
1588857535.5,286046998.7,N
1588857555.3,286046998.6,N
1588857575.1,286046998.6,N
1588857595.9,286046998.1,Y
1588857615.7,286047002.5,P
1588857635.6,286047001.3,N
1588857655.4,286047001.9,N
1588857675.2,286046999.7,N
1588857695.1,286047000.2,N
1588857696.0,286047000.2,N
1588857715.8,286047002.7,N
1588857735.6,286047001.5,N
1588857755.5,286046999.8,N
1588857775.3,286047001.9,N
1588857795.2,286047002.4,N
1588857815.9,286046999.8,N
1588857835.7,286047002.6,N
1588857855.6,286047002.2,N
1588857875.4,286047001.1,N
1588857895.3,286046999.3,N
1588857915.1,286047001.2,N
1588857916.0,286047001.2,N
1588857935.8,286046999.2,N
1588857955.7,286046999.4,N
1588857975.5,286046998.3,N
1588857995.3,286046999.0,N
1588858015.2,286046998.3,N
1588858035.0,286047000.7,N
1588858035.9,286047000.7,N
1588858055.8,286046999.8,N
1588858075.6,286047000.6,N
1588858095.4,286047001.6,N
1588858115.3,286047001.9,N
1588858135.1,286047000.4,N
1588858155.9,286047000.1,N
1588858175.7,286046998.2,N
1588858195.5,286046999.2,N
1588858215.4,286046995.3,Y
1588858235.2,286046995.5,P
1588858255.0,286046998.7,N
1588858256.0,286046998.7,N
1588858275.8,286046999.7,N
1588858295.6,286047000.9,N
1588858315.5,286046999.9,N
1588858335.3,286047000.3,N
1588858355.1,286047000.5,N
1588858375.9,286047002.7,N
1588858395.7,286046998.5,N
1588858415.6,286047001.2,N
1588858435.4,286046998.6,N
1588858455.2,286046998.6,N
1588858475.1,286046998.4,N
1588858476.0,286046998.4,N
1588858495.8,286047000.8,N
1588858515.7,286046999.8,N
1588858535.5,286046998.6,N
1588858555.3,286047000.9,N
1588858575.2,286047001.2,N
1588858595.0,286047000.7,N
1588858595.9,286047000.7,N
1588858615.7,286046998.1,N
1588858635.6,286046999.4,N
1588858655.4,286046996.6,N
1588858675.3,286046995.3,Y
1588858695.1,286046995.0,P
1588858715.8,286046995.2,N
1588858735.7,286046997.3,N
1588858755.5,286046997.4,N
1588858775.4,286046996.6,N
1588858795.2,286046995.1,Y
1588858815.0,286047000.5,P
1588858815.9,286047000.5,N
1588858835.8,286047000.3,N
1588858855.6,286047000.2,N
1588858875.5,286047000.0,N
1588858895.3,286046998.9,N
1588858915.1,286046998.9,N
1588858935.9,286046998.8,N
1588858955.7,286047000.7,N
1588858975.5,286046998.2,N
1588858995.4,286046998.9,N
1588859015.2,286046998.6,N
1588859035.1,286046999.6,N
1588859036.0,286046999.6,N
1588859055.8,286046996.6,Y
1588859075.6,286046996.5,P
1588859095.5,286046999.3,N
1588859115.3,286046996.9,N
1588859135.2,286046996.9,N
1588859155.9,286046999.4,N
1588859175.7,286046998.5,N
1588859195.6,286046999.3,N
1588859215.4,286047000.8,N
1588859235.2,286046998.6,N
1588859255.1,286046998.1,N
1588859256.0,286046998.1,N
1588859275.8,286047001.0,N
1588859295.7,286046998.4,N
1588859315.5,286046998.9,N
1588859335.3,286046996.9,N
1588859355.2,286046996.7,N
1588859375.0,286046999.6,N
1588859375.9,286046999.6,N
1588859395.7,286046998.6,N
1588859415.6,286047000.8,N
1588859435.4,286047000.5,N
1588859455.3,286047001.0,N
1588859475.1,286047000.6,N
1588859476.0,286047000.6,N
1588859495.8,286046998.5,N
1588859515.7,286046998.4,N
1588859535.5,286046998.5,N
1588859555.4,286046998.9,N
1588859575.2,286046998.2,N
1588859595.0,286047000.9,N
1588859595.9,286047000.9,N
1588859615.8,286047000.1,N
1588859635.6,286046998.2,N
1588859655.4,286047000.4,N
1588859675.3,286047000.9,N
1588859695.1,286047001.2,N
1588859715.9,286046998.8,N
1588859735.7,286046999.6,N
1588859755.5,286046998.5,N
1588859775.4,286047000.7,N
1588859795.2,286046998.5,N
1588859815.0,286046998.2,N
1588859815.9,286046998.2,N
1588859835.8,286047000.9,N
1588859855.6,286047001.3,N
1588859875.5,286047003.8,Y
1588859895.3,286047003.0,P
1588859915.1,286047005.4,P
1588859935.9,286047003.5,N
1588859955.7,286047001.5,N
1588859975.6,286047001.5,N
1588859995.4,286047001.4,N
